User: anonymous   Login
Location: Unspecified
(0.0000°N, 0.0000°E)
Time: 02:56:32
(UTC+00:00)
Language:

ESSA 5 - Orbit

View from above orbital plane
View from above orbital plane
View from above satellite
View from above satellite

Ground track
Ground track

The orbit data is extracted from the following two-line orbital elements,

1 02757U 67036A   18171.65265810 -.00000062  00000-0 -72972-4 0  9995
2 02757 101.8612 233.7225 0042668 251.7161 262.2299 12.68498641369352
Epoch (UTC): 20 June 2018 15:39:49
Eccentricity: 0.0042668
inclination: 101.8612°
perigee height: 1355 km
apogee height: 1421 km
right ascension of ascending node: 233.7225°
argument of perigee: 251.7161°
revolutions per day: 12.68498641
mean anomaly at epoch: 262.2299°
orbit number at epoch: 36935

The dashed part of the orbit path shows where the satellite is in the earth's shadow,  

DLR